Regional Weather Roundup
Issued by NWS Kansas City/Pleasant Hill, MO

Home | Current Version | Previous Version | Text Only | Print | Product List | Glossary On
Versions: 1 2 3 4 5 6 7 8 9 10 11 12 13 14 15 16 17 18 19 20 21 22 23 24 25 26 27 28 29 30 31 32 33 34 35 36 37 38 39 40 41 42 43 44 45 46 47 48 49 50
000
ASUS43 KEAX 191810
RWREAX

WEATHER ROUNDUP FOR EASTERN KANSAS AND NORTHWEST MISSOURI
NATIONAL WEATHER SERVICE KANSAS CITY/PLEASANT HILL MO
100 PM CDT SAT APR 19 2014

KSZ040-057-103>105-MOZ028-029-037-043-191900-
...KANSAS CITY METROPOLITAN AREA...

CITY           SKY/WX    TMP DP  RH WIND       PRES   REMARKS
K.C. INTL      PTSUNNY   74  43  32 S22G31    30.13F
6HR MIN TEMP:  52; 6HR MAX TEMP:  75;

K.C. DOWNTOWN  PTSUNNY   75  45  34 S16G30    30.13F
6HR MIN TEMP:  55; 6HR MAX TEMP:  76; 6HR PCP: TRACE;

LEES SUMMIT    PTSUNNY   73  45  36 S12G25    30.15F
6HR MIN TEMP:  52; 6HR MAX TEMP:  73;

OLATHE - IXD   PTSUNNY   73  45  36 S22G30    30.14F
6HR MIN TEMP:  49; 6HR MAX TEMP:  74;

OLATHE - OJC   PTSUNNY   72  46  39 S22G31    30.14F
6HR MIN TEMP:  49; 6HR MAX TEMP:  72;

LAWRENCE       MOSUNNY   76  46  34 S23       30.11F

$$

MOZ001>008-011>017-020>025-030>033-038>040-044>046-053-054-191900-
...NORTHERN AND CENTRAL MISSOURI...

CITY           SKY/WX    TMP DP  RH WIND       PRES   REMARKS
ST. JOSEPH     PTSUNNY   75  44  33 S14G23    30.11F
6HR MIN TEMP:  49; 6HR MAX TEMP:  76;

MOSBY          FAIR      72  43  35 S15G24    30.14F
WHITEMAN AFB   MOSUNNY   74  39  28 S17G23    30.17F
6HR MIN TEMP:  53; 6HR MAX TEMP:  74;

CLINTON        MOSUNNY   73  46  38 S13       30.18F
SEDALIA        MOSUNNY   75  47  36 S15G21    30.19F
6HR MIN TEMP:  52; 6HR MAX TEMP:  75;

WARSAW         NOT AVBL
MARSHALL         N/A     75  48  38 S10G23    30.18F
CHILLICOTHE      N/A     74  44  34 S12G25    30.16F
6HR MIN TEMP:  50; 6HR MAX TEMP:  75;

MOBERLY        SUNNY     73  41  31 S8G21     30.21F
KIRKSVILLE     SUNNY     74  43  32 SW15G21   30.20F
6HR MIN TEMP:  45; 6HR MAX TEMP:  74;


$$

MOZ041-047>049-056>058-063>065-088>090-097-191900-
...EASTERN AND SOUTHERN MISSOURI...

CITY           SKY/WX    TMP DP  RH WIND       PRES   REMARKS
ST. LOUIS INTL PTSUNNY   72  41  32 S12       30.25F
6HR MIN TEMP:  49; 6HR MAX TEMP:  72;

SPIRIT OF STL  SUNNY     71  41  33 E9        30.23F
COLUMBIA       SUNNY     73  45  36 SE10      30.21F
JEFFERSON CITY SUNNY     72  41  32 S9        30.20F
MEXICO         SUNNY     72  45  37 SE9       30.22F
HANNIBAL       SUNNY     75  34  22 SE8       30.23F
ROLLA          SUNNY     72  43  35 SE9       30.21F
LEBANON        SUNNY     73  39  29 CALM      30.22F
OSAGE BEACH    SUNNY     73  41  31 SW9G21    30.22F
SPRINGFIELD    MOSUNNY   72  45  37 SE13      30.21F
BRANSON        CLOUDY    70  45  40 SE10G17   30.24F
NEVADA         MOSUNNY   75  45  33 S17G25    30.18F
JOPLIN         MOSUNNY   72  44  36 S14G21    30.18F
WEST PLAINS    SUNNY     71  43  36 VRB6      30.24F

$$

IAZ060-094-KSZ022-034>040-054-083-096-NEZ052-066-093-191900-
...KANSAS...SOUTHEAST NEBRASKA AND IOWA...

CITY           SKY/WX    TMP DP  RH WIND       PRES   REMARKS
TOPEKA         MOSUNNY   76  46  34 S22G30    30.09F
6HR MIN TEMP:  49; 6HR MAX TEMP:  76;

EMPORIA        MOSUNNY   74  44  34 S25G33    30.09F
CHANUTE        PTSUNNY   74  45  35 S21G31    30.16F
WICHITA        MOSUNNY   74  47  38 S25G32    30.06F
OMAHA          PTSUNNY   74  44  34 S18G25    30.02F
LINCOLN        PTSUNNY   77  47  34 S23G35    30.00F
LAMONI         MOSUNNY   73  44  35 S16G26    30.13F
DES MOINES     CLOUDY    73  43  33 S13       30.11F

$$




USA.gov is the U.S. government's official web portal to all federal, state and local government web resources and services.